• In Hungary
  • List of Countries
  • For 7 days
  • Water Temperature
  • Satellite Maps
  • Weather Map
  • News
  • Weather Widgets
  • user-avatar
    Login

    Hourly Weather Ustinovka

    Today, 18 July, Wednesday

    Time Temperature Precipitation Wind Pressure Humidity
    00:00 +19°C° 0.3 mm 3 mps 734 mmHg 97%
    01:00 +19°C° 0.5 mm 4 mps 734 mmHg 97%
    02:00 +19°C° 0.5 mm 4 mps 734 mmHg 96%
    03:00 +19°C° 0 mm 3 mps 734 mmHg 97%
    04:00 +19°C° 1.2 mm 3 mps 734 mmHg 96%
    05:00 +19°C° 1.2 mm 4 mps 734 mmHg 96%
    06:00 +19°C° 1.2 mm 5 mps 734 mmHg 95%
    07:00 +19°C° 0.9 mm 6 mps 734 mmHg 94%
    08:00 +20°C° 0.9 mm 6 mps 734 mmHg 93%
    09:00 +20°C° 0 mm 7 mps 734 mmHg 91%
    10:00 +20°C° 0.3 mm 7 mps 735 mmHg 88%
    11:00 +21°C° 0.3 mm 7 mps 735 mmHg 85%
    12:00 +21°C° 0.3 mm 7 mps 735 mmHg 83%
    13:00 +22°C° 0.3 mm 7 mps 735 mmHg 79%
    14:00 +23°C° 0.3 mm 7 mps 736 mmHg 75%
    15:00 +24°C° 0 mm 7 mps 735 mmHg 71%
    16:00 +24°C° 0.2 mm 6 mps 736 mmHg 72%
    17:00 +25°C° 0.2 mm 5 mps 736 mmHg 73%
    18:00 +25°C° 0.2 mm 5 mps 736 mmHg 75%
    19:00 +22°C° 0 mm 4 mps 736 mmHg 78%
    20:00 +21°C° 0 mm 4 mps 737 mmHg 82%
    21:00 +20°C° 0 mm 4 mps 737 mmHg 86%
    22:00 +19°C° 0 mm 4 mps 737 mmHg 87%
    23:00 +19°C° 0 mm 4 mps 737 mmHg 88%

    Tomorrow, 19 July, Thursday

    Time Temperature Precipitation Wind Pressure Humidity
    00:00 +19°C° 0 mm 4 mps 737 mmHg 89%
    01:00 +19°C° 0 mm 4 mps 737 mmHg 89%
    02:00 +19°C° 0 mm 4 mps 737 mmHg 90%
    03:00 +18°C° 0 mm 4 mps 738 mmHg 90%
    04:00 +19°C° 0 mm 4 mps 738 mmHg 89%
    05:00 +19°C° 0 mm 4 mps 738 mmHg 88%
    06:00 +20°C° 0 mm 4 mps 738 mmHg 87%
    07:00 +21°C° 0 mm 5 mps 738 mmHg 82%
    08:00 +22°C° 0 mm 5 mps 739 mmHg 78%
    09:00 +25°C° 0 mm 5 mps 739 mmHg 73%
    10:00 +26°C° 0.1 mm 6 mps 739 mmHg 69%
    11:00 +27°C° 0.1 mm 6 mps 739 mmHg 65%
    12:00 +28°C° 0.1 mm 6 mps 739 mmHg 61%
    13:00 +28°C° 0.3 mm 6 mps 739 mmHg 61%
    14:00 +28°C° 0.3 mm 6 mps 739 mmHg 60%
    15:00 +29°C° 0.3 mm 6 mps 740 mmHg 60%
    16:00 +28°C° 0.8 mm 5 mps 740 mmHg 64%
    17:00 +28°C° 0.8 mm 4 mps 740 mmHg 68%
    18:00 +27°C° 0.8 mm 3 mps 740 mmHg 72%
    19:00 +26°C° 0.3 mm 3 mps 740 mmHg 74%
    20:00 +25°C° 0.3 mm 2 mps 740 mmHg 77%
    21:00 +23°C° 0.3 mm 2 mps 740 mmHg 80%
    22:00 +23°C° 0.1 mm 2 mps 740 mmHg 81%
    23:00 +21°C° 0.1 mm 2 mps 740 mmHg 81%

    Day after tomorrow, 20 July, Friday

    Time Temperature Precipitation Wind Pressure Humidity
    00:00 +21°C° 0.1 mm 2 mps 740 mmHg 82%
    01:00 +21°C° 0.9 mm 2 mps 740 mmHg 84%
    02:00 +20°C° 0.9 mm 2 mps 740 mmHg 87%
    03:00 +20°C° 0.9 mm 2 mps 740 mmHg 89%
    04:00 +20°C° 0.9 mm 2 mps 740 mmHg 88%
    05:00 +20°C° 0.9 mm 2 mps 740 mmHg 88%
    06:00 +21°C° 0.9 mm 2 mps 741 mmHg 88%
    07:00 +22°C° 0.1 mm 3 mps 741 mmHg 84%
    08:00 +24°C° 0.1 mm 3 mps 741 mmHg 80%
    09:00 +25°C° 0.1 mm 4 mps 741 mmHg 76%
    10:00 +27°C° 0 mm 4 mps 741 mmHg 72%
    11:00 +28°C° 0 mm 4 mps 741 mmHg 67%
    12:00 +29°C° 0 mm 4 mps 741 mmHg 62%
    13:00 +30°C° 1.4 mm 4 mps 741 mmHg 61%
    14:00 +30°C° 1.4 mm 4 mps 740 mmHg 61%
    15:00 +30°C° 1.4 mm 4 mps 740 mmHg 60%
    16:00 +29°C° 0.5 mm 3 mps 740 mmHg 64%
    17:00 +29°C° 0.5 mm 2 mps 740 mmHg 68%
    18:00 +28°C° 0.5 mm 1 mps 741 mmHg 72%
    19:00 +26°C° 0.2 mm 1 mps 741 mmHg 74%
    20:00 +25°C° 0.2 mm 1 mps 741 mmHg 77%
    21:00 +24°C° 0.2 mm 1 mps 741 mmHg 80%
    22:00 +23°C° 0.9 mm 1 mps 741 mmHg 83%
    23:00 +23°C° 0.9 mm 1 mps 741 mmHg 85%

    21 July, Saturday

    Time Temperature Precipitation Wind Pressure Humidity
    00:00 +21°C° 0.9 mm 2 mps 741 mmHg 87%
    01:00 +21°C° 0 mm 2 mps 741 mmHg 88%
    02:00 +21°C° 0 mm 2 mps 741 mmHg 89%
    03:00 +20°C° 0 mm 2 mps 741 mmHg 90%
    04:00 +21°C° 0 mm 2 mps 741 mmHg 89%
    05:00 +21°C° 0 mm 2 mps 741 mmHg 87%
    06:00 +21°C° 0 mm 2 mps 741 mmHg 86%
    07:00 +24°C° 0.3 mm 2 mps 741 mmHg 80%
    08:00 +26°C° 0.3 mm 2 mps 741 mmHg 74%
    09:00 +27°C° 0.3 mm 2 mps 742 mmHg 67%
    10:00 +28°C° 0.2 mm 2 mps 741 mmHg 63%
    11:00 +29°C° 0.2 mm 2 mps 741 mmHg 59%
    12:00 +30°C° 0.2 mm 3 mps 741 mmHg 55%
    13:00 +30°C° 0.7 mm 2 mps 741 mmHg 55%
    14:00 +30°C° 0.7 mm 2 mps 741 mmHg 55%
    15:00 +30°C° 0.7 mm 2 mps 741 mmHg 55%
    16:00 +30°C° 0.1 mm 2 mps 741 mmHg 58%
    17:00 +30°C° 0.1 mm 1 mps 741 mmHg 60%
    18:00 +30°C° 0.1 mm 1 mps 741 mmHg 63%
    19:00 +28°C° 0.1 mm 1 mps 741 mmHg 66%
    20:00 +26°C° 0.1 mm 1 mps 741 mmHg 68%
    21:00 +25°C° 0.1 mm 1 mps 742 mmHg 71%
    22:00 +24°C° 0.1 mm 1 mps 741 mmHg 72%
    23:00 +24°C° 0.1 mm 2 mps 741 mmHg 74%

    22 July, Sunday

    Time Temperature Precipitation Wind Pressure Humidity
    00:00 +23°C° 0.1 mm 2 mps 741 mmHg 75%
    01:00 +23°C° 0.8 mm 1 mps 741 mmHg 78%
    02:00 +22°C° 0.8 mm 1 mps 741 mmHg 81%
    03:00 +22°C° 0.8 mm 1 mps 741 mmHg 84%
    04:00 +21°C° 0.3 mm 2 mps 741 mmHg 84%
    05:00 +21°C° 0.3 mm 2 mps 741 mmHg 85%
    06:00 +23°C° 0.3 mm 2 mps 741 mmHg 85%
    07:00 +25°C° 0.1 mm 2 mps 741 mmHg 79%
    08:00 +26°C° 0.1 mm 2 mps 741 mmHg 73%
    09:00 +28°C° 0.1 mm 2 mps 741 mmHg 66%
    10:00 +29°C° 0.3 mm 2 mps 741 mmHg 61%
    11:00 +30°C° 0.3 mm 3 mps 741 mmHg 56%
    12:00 +31°C° 0.3 mm 3 mps 741 mmHg 52%
    13:00 +31°C° 0.1 mm 3 mps 741 mmHg 52%
    14:00 +32°C° 0.1 mm 2 mps 741 mmHg 52%
    15:00 +32°C° 0.1 mm 2 mps 741 mmHg 53%
    16:00 +31°C° 0 mm 2 mps 741 mmHg 56%
    17:00 +31°C° 0 mm 2 mps 741 mmHg 59%
    18:00 +30°C° 0 mm 1 mps 741 mmHg 61%
    19:00 +29°C° 0 mm 1 mps 741 mmHg 64%
    20:00 +27°C° 0 mm 1 mps 741 mmHg 66%
    21:00 +26°C° 0 mm 1 mps 741 mmHg 69%
    22:00 +25°C° 0.3 mm 1 mps 741 mmHg 71%
    23:00 +24°C° 0.3 mm 1 mps 741 mmHg 74%

    23 July, Monday

    Time Temperature Precipitation Wind Pressure Humidity
    00:00 +24°C° 0.3 mm 1 mps 741 mmHg 77%
    01:00 +23°C° 0.3 mm 1 mps 741 mmHg 79%
    02:00 +23°C° 0.3 mm 1 mps 741 mmHg 81%
    03:00 +23°C° 0.3 mm 2 mps 741 mmHg 82%
    04:00 +23°C° 0.5 mm 2 mps 741 mmHg 83%
    05:00 +23°C° 0.5 mm 2 mps 741 mmHg 85%
    06:00 +23°C° 0.5 mm 2 mps 741 mmHg 86%
    07:00 +25°C° 0.4 mm 3 mps 741 mmHg 79%
    08:00 +27°C° 0.4 mm 3 mps 741 mmHg 73%
    09:00 +29°C° 0.4 mm 3 mps 741 mmHg 67%
    10:00 +29°C° 0.6 mm 3 mps 741 mmHg 62%
    11:00 +30°C° 0.6 mm 3 mps 741 mmHg 57%
    12:00 +31°C° 0.6 mm 3 mps 741 mmHg 52%
    13:00 +31°C° 0.3 mm 3 mps 741 mmHg 52%
    14:00 +31°C° 0.3 mm 2 mps 741 mmHg 53%
    15:00 +31°C° 0.3 mm 2 mps 741 mmHg 54%
    16:00 +31°C° 0.1 mm 2 mps 741 mmHg 56%
    17:00 +31°C° 0.1 mm 2 mps 741 mmHg 59%
    18:00 +30°C° 0.1 mm 2 mps 741 mmHg 62%
    19:00 +29°C° 0.2 mm 2 mps 742 mmHg 65%
    20:00 +27°C° 0.2 mm 3 mps 742 mmHg 69%
    21:00 +26°C° 0.2 mm 3 mps 742 mmHg 72%
    22:00 +25°C° 0.9 mm 3 mps 742 mmHg 76%
    23:00 +24°C° 0.9 mm 3 mps 742 mmHg 81%
    Show more